Location: Schommer Observatory
(40.5200°N, 74.4500°W)
Time: 14:26:27
(UTC-04:00)

OTV 5 (USA 277) - Visible Passes

Search period start: 22 April 2018 00:00
Search period end: 02 May 2018 00:00
Orbit: 310 x 323 km, 54.5° (Epoch: 21 April)

Date Brightness Start Highest point End Pass type
(mag) Time Alt. Az. Time Alt. Az. Time Alt. Az.
28 Apr ? 22:40:29 10° NNW 22:40:32 10° NNW 22:40:32 10° NNW visible
30 Apr ? 21:35:32 10° N 21:36:46 12° NNE 21:37:16 12° NE visible
01 May ? 21:49:12 10° NNW 21:51:06 22° NNE 21:51:06 22° NNE visible
